Regional Weather Roundup
Issued by NWS

Home | Current Version | Previous Version | Text Only | Print | Product List | Glossary On
Versions: 1 2 3 4 5 6 7 8 9 10 11 12 13 14 15 16 17 18 19 20 21 22 23 24 25 26 27 28 29 30 31 32 33 34 35 36 37 38 39 40 41 42 43 44 45 46 47 48 49 50
186
ASUS43 KMKX 260621
RWRWI

WISCONSIN REGIONAL WEATHER ROUNDUP
NATIONAL WEATHER SERVICE MILWAUKEE/SULLIVAN WI
100 AM CDT MON JUN 26 2017

NOTE: "FAIR" INDICATES FEW OR NO CLOUDS BELOW 12,000 FEET WITH NO
SIGNIFICANT WEATHER AND/OR OBSTRUCTIONS TO VISIBILITY.

WIZ001-002-006>008-014>016-023>028-260700-
NORTHWEST WISCONSIN

CITY           SKY/WX    TMP DP  RH WIND       PRES   REMARKS
SUPERIOR ARPT  NOT AVBL
ASHLAND        CLOUDY    50  46  86 NW7       30.08S
6HR MIN TEMP:  48; 6HR MAX TEMP:  56;

HAYWARD        CLEAR     47  43  86 VRB3      30.10R
6HR MIN TEMP:  45; 6HR MAX TEMP:  58; 6HR PCP: TRACE;

SIREN          PTCLDY    44  43  96 CALM      30.12S
6HR MIN TEMP:  43; 6HR MAX TEMP:  59;

CUMBERLAND     CLEAR     46  45  93 NW6       30.11S
RICE LAKE      CLEAR     49  45  85 NW5       30.12S
6HR MIN TEMP:  49; 6HR MAX TEMP:  58; 6HR PCP:  0.01;

CHETEK         CLEAR     50  46  88 NW3       30.10S
6HR MIN TEMP:  49; 6HR MAX TEMP:  59;

LADYSMITH      CLEAR     49  46  90 W8        30.09F
6HR MIN TEMP:  49; 6HR MAX TEMP:  56; 6HR PCP:  0.01;

EAU CLAIRE     CLEAR     48  46  93 W3        30.09F
6HR MIN TEMP:  46; 6HR MAX TEMP:  63; 6HR PCP:  0.03;

MENOMONIE      CLEAR     50  46  87 W5        30.11S
6HR MIN TEMP:  50; 6HR MAX TEMP:  64;

NEW RICHMOND   CLEAR     48  43  81 NW5       30.13S
6HR MIN TEMP:  47; 6HR MAX TEMP:  65;

OSCEOLA        PTCLDY    47  47 100 CALM      30.16R
6HR MIN TEMP:  47; 6HR MAX TEMP:  65;

$$

WIZ003>005-009-010-017-018-260700-
NORTH CENTRAL WISCONSIN

CITY           SKY/WX    TMP DP  RH WIND       PRES   REMARKS
MANITOWISH WTR RAIN      47  47 100 NW12      30.03S
6HR MIN TEMP:  46; 6HR MAX TEMP:  51;

ARBOR VITAE    CLOUDY    52  49  89 NW9G16    30.02F
6HR MIN TEMP:  49; 6HR MAX TEMP:  55;

WOODRUFF       CLOUDY    52  49  89 NW9G16    30.02F
6HR MIN TEMP:  49; 6HR MAX TEMP:  55;

RHINELANDER    PTCLDY    46  46 100 W7        30.03F
6HR MIN TEMP:  44; 6HR MAX TEMP:  54;

EAGLE RIVER    CLOUDY    48  47  98 W7        30.01S
6HR MIN TEMP:  47; 6HR MAX TEMP:  52;

LAND O LAKES   CLOUDY    48  47  94 NW9       30.01F
6HR MIN TEMP:  48; 6HR MAX TEMP:  53;

PHILLIPS       CLEAR     45  45 100 W3        30.05F
6HR MIN TEMP:  45; 6HR MAX TEMP:  55;

TOMAHAWK       NOT AVBL
MEDFORD        CLEAR     46  45  96 W6        30.06F
6HR MIN TEMP:  46; 6HR MAX TEMP:  58; 6HR PCP:  0.01;

MERRILL        CLEAR     49  48  98 W5        30.05S
6HR MIN TEMP:  49; 6HR MAX TEMP:  57;

$$

WIZ029-030-035-036-043>047-260700-
CENTRAL WISCONSIN

CITY           SKY/WX    TMP DP  RH WIND       PRES   REMARKS
WAUSAU         CLEAR     49  48  97 W8        30.03F
6HR MIN TEMP:  49; 6HR MAX TEMP:  59;

MOSINEE        CLEAR     46  46 100 W6        30.06F
MARSHFIELD     CLEAR     49  45  86 W6        30.06F
6HR MIN TEMP:  48; 6HR MAX TEMP:  59;

STEVENS POINT  CLEAR     49  47  93 W7        30.06S
6HR MIN TEMP:  49; 6HR MAX TEMP:  56;

WAUPACA        CLEAR     52  50  93 W5        30.05F
6HR MIN TEMP:  53; 6HR MAX TEMP:  61; 6HR PCP:  0.01;

WAUTOMA        CLEAR     49  47  93 W3        30.07F
6HR MIN TEMP:  49; 6HR MAX TEMP:  59;

WISC RAPIDS    CLEAR     50  46  86 W6        30.08F
6HR MIN TEMP:  50; 6HR MAX TEMP:  61;

CAMP DOUGLAS   CLEAR     46  46  99 W7        30.09F
6HR MIN TEMP:  46; 6HR MAX TEMP:  62; 6HR PCP:  0.13;

$$

WIZ011>013-019>022-031-037>040-048>050-260700-
NORTHEAST WISCONSIN

CITY           SKY/WX    TMP DP  RH WIND       PRES   REMARKS
ANTIGO         CLEAR     45  45  99 W5        30.03F
6HR MIN TEMP:  45; 6HR MAX TEMP:  55;

SHAWANO        CLEAR     52  48  86 W5        30.03F
6HR MIN TEMP:  52; 6HR MAX TEMP:  60;

OCONTO         CLEAR     51  48  89 W8        30.00F
6HR MIN TEMP:  51; 6HR MAX TEMP:  59; 6HR PCP:  0.01;

STURGEON BAY     N/A     55  50  83 W9G20       N/A
6HR MIN TEMP:  55; 6HR MAX TEMP:  60;

GREEN BAY      CLEAR     53  50  89 W8        30.02F
6HR MIN TEMP:  53; 6HR MAX TEMP:  60; 6HR PCP: TRACE;

MANITOWOC      CLEAR     55  49  80 W10       30.02F
6HR MIN TEMP:  55; 6HR MAX TEMP:  62; 6HR PCP: TRACE;

APPLETON       CLEAR     50  50 100 W7        30.03S
CLINTONVILLE   CLEAR     50  46  87 W5        30.03F
OSHKOSH        CLEAR     53  48  83 W6        30.04F
6HR MIN TEMP:  53; 6HR MAX TEMP:  58; 6HR PCP: TRACE;

$$

WIZ032>034-041-042-053>061-260700-
SOUTHWEST WISCONSIN

CITY           SKY/WX    TMP DP  RH WIND       PRES   REMARKS
LA CROSSE      CLEAR     57  50  77 CALM      30.10F
6HR MIN TEMP:  56; 6HR MAX TEMP:  72;

SPARTA         CLEAR     44  44  99 CALM      30.11F
6HR MIN TEMP:  44; 6HR MAX TEMP:  64;

VIROQUA        CLEAR     53  46  79 CALM      30.11F
6HR MIN TEMP:  51; 6HR MAX TEMP:  64;

BOSCOBEL       CLEAR     51  49  92 SW5       30.12S
6HR MIN TEMP:  51; 6HR MAX TEMP:  67;

PRAIRIE DU CHI CLEAR     51  46  83 CALM      30.13S
6HR MIN TEMP:  50; 6HR MAX TEMP:  67;

PLATTEVILLE    CLEAR     52  49  90 W5        30.13S
6HR MIN TEMP:  52; 6HR MAX TEMP:  65;

$$

WIZ056-057-062-063-064-067-068-260700-
SOUTH CENTRAL WISCONSIN

CITY           SKY/WX    TMP DP  RH WIND       PRES   REMARKS
REEDSBURG      CLEAR     51  51 100 CALM      30.10S
6HR MIN TEMP:  50; 6HR MAX TEMP:  58; 6HR PCP:  0.01;

BARABOO/DELLS  PTCLDY    49  48  95 SW3       30.09F
6HR MIN TEMP:  49; 6HR MAX TEMP:  57;

LONE ROCK      CLEAR     50  47  89 CALM      30.11S
6HR MIN TEMP:  49; 6HR MAX TEMP:  66;

MINERAL POINT  CLEAR     54  50  87 W5        30.12S
MADISON        PTCLDY    54  51  90 CALM      30.09F
6HR MIN TEMP:  53; 6HR MAX TEMP:  59; 6HR PCP:  0.04;

MIDDLETON      MOCLDY    52  52 100 CALM      30.11S
6HR MIN TEMP:  49; 6HR MAX TEMP:  62;

WATERTOWN      NOT AVBL
MONROE         CLEAR     54  46  76 W10       30.11S
JANESVILLE     CLEAR     52  52 100 CALM      30.10S
$$

WIZ051-052-058>065-066-070>072-260700-
SOUTHEAST WISCONSIN

CITY           SKY/WX    TMP DP  RH WIND       PRES   REMARKS
MILWAUKEE      PTCLDY    59  53  80 W7        30.07F
6HR MIN TEMP:  58; 6HR MAX TEMP:  68; 6HR PCP:  0.02;

WAUKESHA       PTCLDY    52  50  93 W7        30.09F
MILWAUKEE/TIMM CLEAR     55  46  71 W7        30.08S
RACINE         MOCLDY    56  51  84 W5        30.09F
6HR MIN TEMP:  56; 6HR MAX TEMP:  66; 6HR PCP:  0.02;

KENOSHA        PTCLDY    54  49  83 W7        30.09F
6HR MIN TEMP:  54; 6HR MAX TEMP:  65;

FOND DU LAC    CLEAR     55  47  74 W6        30.05F
6HR MIN TEMP:  55; 6HR MAX TEMP:  61; 6HR PCP: TRACE;

SHEBOYGAN      CLEAR     53  53 100 W5        30.04S
6HR MIN TEMP:  53; 6HR MAX TEMP:  61; 6HR PCP:  0.01;

WEST BEND      CLEAR     52  52 100 W5        30.05F
JUNEAU         CLEAR     52  49  90 W7        30.08F
6HR MIN TEMP:  51; 6HR MAX TEMP:  57;

$$

LSZ147-162-260700-
LAKE SUPERIOR

STATION/POSITION TIME  TEMP    WIND        PRES    WAVE
                       AIR SEA DIR/SP/G            HT/PER
                 (UTC) (F)     (DEG/KT/KT) (MB)    (FT/S)
W MID LAKE BUOY  0550   44 39  320/ 14/ 17 1016.8F   1
DEVILS ISLAND    0600   49     330/ 18/ 20 1018.7S
SAXON HARBOR     0540   52     330/ 14/ 17 1017.9R
$$

LMZ867-665-643>646-260700-
LAKE MICHIGAN

STATION/POSITION TIME  TEMP    WIND        PRES    WAVE
                       AIR SEA DIR/SP/G            HT/PER
                 (UTC) (F)     (DEG/KT/KT) (MB)    (FT/S)
CHAMBERS ISLAND  0540   55     280/  5/ 16 1014.6F
S GREEN BAY BUOY 0600   56     280/ 14/ 17 1015.7
N MID LAKE BUOY  0550   57 58  290/  8/ 10 1015.0F   1/ 3
NORTHPORT PIER   0540   57     310/  7/  8 1014.9S
KEWAUNEE LAKESHO 0554   55     280/  5/



USA.gov is the U.S. government's official web portal to all federal, state and local government web resources and services.